Location: Bucquoy
(50.1391°N, 2.7097°E)
Time: 23:41:42
(UTC+00:00)

COSMOS 2455 - Pass Details

Date: 06 May 2021
Orbit: 902 x 908 km, 67.1° (Epoch: 21 June)

Event Time Altitude Azimuth Distance (km) Brightness Sun altitude
Rises 01:56:19 0° 324° (NW) 3,544 6.2 -17.4°
Reaches altitude 10° 01:58:52 10° 327° (NNW) 2,600 5.5 -17.1°
Maximum altitude 02:04:52 65° 49° (NE) 994 3.3 -16.6°
Drops below altitude 10° 02:10:51 10° 132° (SE) 2,588 5.2 -16.1°
Sets 02:13:23 0° 135° (SE) 3,526 5.8 -15.8°
